Lawrence, MA

7:03 AM EST on November 13, 2019 (GMT -0500)
Lawrence Municipal

Weather History for KLWM - October, 2019

Change the Weather History Date:

Wednesday, October 23, 2019

  Actual Average Record
Temperature  
Mean Temperature 58 °F -  
Max Temperature 68 °F 61 °F 85 °F (1979)
Min Temperature 46 °F 39 °F 22 °F (1969)
Degree Days  
Heating Degree Days 7    
Growing Degree Days 8 (Base 50)    
Moisture  
Dew Point 50 °F    
Average Humidity 83    
Maximum Humidity 97    
Minimum Humidity 38    
Precipitation  
Precipitation 0.71 in - - ()
Sea Level Pressure  
Sea Level Pressure 29.85 in    
Wind  
Wind Speed 6 mph (North)    
Max Wind Speed 17 mph    
Max Gust Speed 29 mph    
Visibility 6 miles    
Events Rain    
Averages and records for this station are not official NWS values.
T = Trace of Precipitation, MM = Missing Value Source: NWS Daily Summary

Daily Weather History Graph

Daily Weather History Graph

Search for Another Location

Airport or City:

Astronomy

Oct. 23, 2019 Rise Set
Actual Time 7:06 AM EDT 5:49 PM EDT
Civil Twilight 6:38 AM EDT 6:18 PM EDT
Nautical Twilight 6:05 AM EDT 6:51 PM EDT
Astronomical Twilight 5:32 AM EDT 7:24 PM EDT
Moon 1:11 AM EDT (10/23) 3:47 PM EDT (10/23)
Length of Visible Light 11h 40m
Length of Day
10h 43m
Waning Crescent, 27% of the Moon is Illuminated
Oct 23
Waning Crescent
Oct 27
New
Nov 4
First Quarter
Nov 12
Full
Nov 19
Last Quarter

Hourly Weather History & Observations

Time (EDT) Temp. Windchill Dew Point Humidity Pressure Visibility Wind Dir Wind Speed Gust Speed Precip Events Conditions
12:46 AM 54.0 °F - 53.1 °F 97% 29.91 in 2.5 mi NE 3.5 mph - 0.06 in Rain Light Rain
12:54 AM 54.0 °F - 53.1 °F 97% 29.90 in 2.5 mi NE 5.8 mph - 0.08 in Rain Light Rain
12:57 AM 54.0 °F - 53.1 °F 97% 29.90 in 3.0 mi NE 4.6 mph - 0.00 in Rain Light Rain
1:04 AM 54.0 °F - 53.1 °F 97% 29.89 in 3.0 mi NE 5.8 mph - 0.01 in Rain Light Rain
1:17 AM 54.0 °F - 53.1 °F 97% 29.88 in 4.0 mi NE 4.6 mph - 0.02 in Rain Light Rain
1:34 AM 55.0 °F - 53.1 °F 93% 29.87 in 3.0 mi NNE 4.6 mph - 0.05 in Rain Light Rain
1:41 AM 54.0 °F - 53.1 °F 97% 29.87 in 4.0 mi NNE 5.8 mph - 0.07 in Rain Rain
1:54 AM 55.0 °F - 53.1 °F 93% 29.86 in 5.0 mi NE 4.6 mph - 0.07 in Rain Light Rain
2:34 AM 55.0 °F - 54.0 °F 96% 29.84 in 2.5 mi NNE 5.8 mph - 0.02 in Rain Light Rain
2:43 AM 55.0 °F - 54.0 °F 96% 29.84 in 3.0 mi NNE 4.6 mph - 0.02 in Rain Light Rain
2:54 AM 55.0 °F - 54.0 °F 96% 29.83 in 2.0 mi NE 5.8 mph - 0.09 in Rain Heavy Rain
3:08 AM 55.0 °F - 54.0 °F 96% 29.83 in 4.0 mi NNE 4.6 mph - 0.01 in Rain Light Rain
3:23 AM 55.0 °F - 54.0 °F 96% 29.82 in 2.5 mi NE 4.6 mph - 0.04 in Rain Rain
3:31 AM 55.0 °F - 54.0 °F 96% 29.80 in 3.0 mi NE 6.9 mph - 0.05 in Rain Light Rain
3:33 AM 55.0 °F - 54.0 °F 96% 29.80 in 3.0 mi NE 6.9 mph - 0.05 in Rain Light Rain
3:43 AM 55.0 °F - 54.0 °F 96% 29.80 in 6.0 mi NNE 5.8 mph - 0.05 in Rain Light Rain
3:54 AM 55.9 °F - 54.0 °F 93% 29.80 in 9.0 mi NE 4.6 mph - 0.05 in   Overcast
4:09 AM 55.9 °F - 54.0 °F 93% 29.79 in 2.0 mi NE 5.8 mph - 0.00 in Rain Light Rain
4:19 AM 55.9 °F - 54.0 °F 93% 29.79 in 5.0 mi NE 5.8 mph - 0.00 in   Overcast
4:54 AM 55.9 °F - 55.0 °F 97% 29.77 in 7.0 mi NE 3.5 mph - 0.00 in   Overcast
5:16 AM 55.9 °F - 55.0 °F 97% 29.77 in 2.0 mi NE 5.8 mph - 0.01 in Rain Light Rain
5:28 AM 55.9 °F - 55.0 °F 97% 29.76 in 1.8 mi NE 5.8 mph - 0.01 in Rain Light Rain
5:54 AM 55.9 °F - 55.0 °F 97% 29.75 in 1.5 mi NE 4.6 mph - 0.01 in   Overcast
6:48 AM 55.4 °F - 53.6 °F 94% 29.77 in 2.0 mi NW 6.9 mph - 0.26 in Rain Heavy Rain
6:54 AM 55.0 °F - 54.0 °F 96% 29.78 in 4.0 mi NW 5.8 mph - 0.27 in Rain Rain
7:54 AM 54.0 °F - 53.1 °F 97% 29.75 in 10.0 mi NNW 8.1 mph - 0.05 in   Overcast
8:19 AM 55.0 °F - 53.1 °F 93% 29.78 in 1.8 mi WNW 4.6 mph - 0.05 in Rain Rain
8:30 AM 54.0 °F - 53.1 °F 97% 29.78 in 3.0 mi North 3.5 mph - 0.08 in Rain Rain
8:54 AM 55.0 °F - 53.1 °F 93% 29.78 in 7.0 mi WNW 5.8 mph - 0.09 in Rain Light Rain
9:01 AM 55.0 °F - 53.1 °F 93% 29.77 in 10.0 mi NW 5.8 mph - 0.00 in Rain Light Rain
9:54 AM 55.9 °F - 53.1 °F 90% 29.78 in 10.0 mi WNW 5.8 mph - 0.00 in   Overcast
10:54 AM 57.0 °F - 53.1 °F 87% 29.80 in 10.0 mi WNW 11.5 mph - N/A   Overcast
11:32 AM 59.0 °F - 52.0 °F 78% 29.81 in 10.0 mi WNW 11.5 mph 20.7 mph N/A   Overcast
11:54 AM 61.0 °F - 52.0 °F 72% 29.80 in 10.0 mi West 15.0 mph 21.9 mph N/A   Mostly Cloudy
12:54 PM 64.0 °F - 46.9 °F 54% 29.81 in 10.0 mi WNW 17.3 mph 28.8 mph N/A   Clear
1:54 PM 66.0 °F - 46.0 °F 48% 29.80 in 10.0 mi NW 15.0 mph 24.2 mph N/A   Mostly Cloudy
2:54 PM 63.0 °F - 41.0 °F 45% 29.83 in 10.0 mi WNW 15.0 mph 25.3 mph N/A   Mostly Cloudy
3:54 PM 64.0 °F - 37.9 °F 38% 29.86 in 10.0 mi West 15.0 mph 24.2 mph N/A   Scattered Clouds
4:54 PM 62.1 °F - 36.0 °F 38% 29.88 in 10.0 mi West 13.8 mph 24.2 mph N/A   Clear
5:54 PM 59.0 °F - 37.9 °F 46% 29.92 in 10.0 mi WSW 6.9 mph - N/A   Clear
6:54 PM 57.0 °F - 39.0 °F 51% 29.97 in 10.0 mi WSW 6.9 mph - N/A   Clear
7:54 PM 55.9 °F - 37.9 °F 51% 30.01 in 10.0 mi WSW 5.8 mph - N/A   Clear
8:54 PM 54.0 °F - 37.9 °F 55% 30.04 in 10.0 mi WSW 8.1 mph - N/A   Clear
9:54 PM 50.0 °F - 37.9 °F 63% 30.08 in 10.0 mi SW 6.9 mph - N/A   Clear
10:54 PM 50.0 °F - 37.9 °F 63% 30.09 in 10.0 mi South 6.9 mph - N/A   Clear
11:54 PM 46.0 °F 43.1 °F 37.9 °F 73% 30.11 in 10.0 mi SW 5.8 mph - N/A   Clear